User: anonymous   Login
Location: Strohbehn Observatory
(42.4649°N, 93.8239°W)
Time: 23:08:01
(UTC-05:00)
Language:

SL-16 R/B - Orbit

View from above orbital plane
View from above orbital plane
View from above satellite
View from above satellite

Ground track
Ground track

The orbit data is extracted from the following two-line orbital elements,

1 31793U 07029B   18170.48909737 -.00000160 +00000-0 -58701-4 0  9999
2 31793 070.9763 337.6265 0002784 278.0693 142.9380 14.14405463566618
Epoch (UTC): 19 June 2018 11:44:18
Eccentricity: 0.0002784
inclination: 70.9763°
perigee height: 842 km
apogee height: 846 km
right ascension of ascending node: 337.6265°
argument of perigee: 278.0693°
revolutions per day: 14.14405463
mean anomaly at epoch: 142.9380°
orbit number at epoch: 56661

The dashed part of the orbit path shows where the satellite is in the earth's shadow,  

DLR